Time,TemperatureF,DewpointF,PressureIn,WindDirection,WindDirectionDegrees,WindSpeedMPH,WindSpeedGustMPH,Humidity,HourlyPrecipIn,Conditions,Clouds,dailyrainin,SoftwareType,DateUTC
2013-02-17 00:00:00,43.3,29.5,30.09,South,177,0.0,4.0,58,0.00,CLR,CLR,0.00,WeatherDisplay:10.37,2013-02-17 00:00:00,
2013-02-17 00:10:00,43.3,29.1,30.09,South,182,0.0,3.0,57,0.00,CLR,CLR,0.00,WeatherDisplay:10.37,2013-02-17 00:10:00,
2013-02-17 00:15:00,43.2,28.9,30.09,South,172,0.0,0.0,57,0.00,CLR,CLR,0.00,WeatherDisplay:10.37,2013-02-17 00:15:00,
2013-02-17 00:20:00,43.2,28.9,30.09,SSE,162,1.0,4.0,57,0.00,CLR,CLR,0.00,WeatherDisplay:10.37,2013-02-17 00:20:00,
2013-02-17 00:30:00,43.2,28.9,30.09,South,180,0.0,6.0,57,0.00,CLR,CLR,0.00,WeatherDisplay:10.37,2013-02-17 00:30:00,
2013-02-17 00:40:00,43.2,28.9,30.12,South,184,5.0,7.0,57,0.00,CLR,CLR,0.00,WeatherDisplay:10.37,2013-02-17 00:40:00,
2013-02-17 00:45:00,43.2,29.4,30.12,SSW,192,1.0,8.0,58,0.00,CLR,CLR,0.00,WeatherDisplay:10.37,2013-02-17 00:45:00,
2013-02-17 00:50:00,43.2,28.9,30.12,SSW,194,1.0,5.0,57,0.00,CLR,CLR,0.00,WeatherDisplay:10.37,2013-02-17 00:50:00,
2013-02-17 00:55:00,43.2,28.9,30.12,SSW,193,0.0,0.0,57,0.00,CLR,CLR,0.00,WeatherDisplay:10.37,2013-02-17 00:55:00,
2013-02-17 01:00:00,43.2,28.9,30.12,South,188,0.0,5.0,57,0.00,CLR,CLR,0.00,WeatherDisplay:10.37,2013-02-17 01:00:00,
2013-02-17 01:10:00,43.0,28.8,30.09,South,187,0.0,0.0,57,0.00,CLR,CLR,0.00,WeatherDisplay:10.37,2013-02-17 01:10:00,
2013-02-17 01:15:00,43.0,28.8,30.09,South,190,0.0,0.0,57,0.00,CLR,CLR,0.00,WeatherDisplay:10.37,2013-02-17 01:15:00,
2013-02-17 01:20:00,43.0,28.8,30.09,South,191,2.0,5.0,57,0.00,CLR,CLR,0.00,WeatherDisplay:10.37,2013-02-17 01:20:00,
2013-02-17 01:30:00,43.0,28.8,30.09,South,184,0.0,0.0,57,0.00,CLR,CLR,0.00,WeatherDisplay:10.37,2013-02-17 01:30:00,
2013-02-17 01:40:00,43.0,28.8,30.09,SE,143,0.0,4.0,57,0.00,CLR,CLR,0.00,WeatherDisplay:10.37,2013-02-17 01:40:00,
2013-02-17 01:45:00,42.8,28.6,30.09,SE,136,0.0,3.0,57,0.00,CLR,CLR,0.00,WeatherDisplay:10.37,2013-02-17 01:45:00,
2013-02-17 01:50:00,42.8,28.6,30.09,SE,142,0.0,4.0,57,0.00,CLR,CLR,0.00,WeatherDisplay:10.37,2013-02-17 01:50:00,
2013-02-17 01:55:00,42.8,28.6,30.09,SE,134,3.0,4.0,57,0.00,CLR,CLR,0.00,WeatherDisplay:10.37,2013-02-17 01:55:00,
2013-02-17 02:00:00,42.8,28.6,30.09,SE,132,2.0,4.0,57,0.00,CLR,CLR,0.00,WeatherDisplay:10.37,2013-02-17 02:00:00,
2013-02-17 02:05:00,42.8,29.0,30.09,SE,146,0.0,4.0,58,0.00,CLR,CLR,0.00,WeatherDisplay:10.37,2013-02-17 02:05:00,
2013-02-17 02:10:00,42.8,29.0,30.09,SSE,160,2.0,7.0,58,0.00,CLR,CLR,0.00,WeatherDisplay:10.37,2013-02-17 02:10:00,
2013-02-17 02:15:00,42.8,29.0,30.09,South,174,2.0,4.0,58,0.00,CLR,CLR,0.00,WeatherDisplay:10.37,2013-02-17 02:15:00,
2013-02-17 02:20:00,42.6,28.9,30.09,South,175,2.0,4.0,58,0.00,CLR,CLR,0.00,WeatherDisplay:10.37,2013-02-17 02:20:00,
2013-02-17 02:25:00,42.6,28.9,30.09,South,175,0.0,6.0,58,0.00,CLR,CLR,0.00,WeatherDisplay:10.37,2013-02-17 02:25:00,
2013-02-17 02:30:00,42.6,28.9,30.09,SSE,166,0.0,4.0,58,0.00,CLR,CLR,0.00,WeatherDisplay:10.37,2013-02-17 02:30:00,
2013-02-17 02:40:00,42.4,28.7,30.09,SSE,156,0.0,0.0,58,0.00,CLR,CLR,0.00,WeatherDisplay:10.37,2013-02-17 02:40:00,
2013-02-17 02:45:00,42.4,28.7,30.09,SSE,156,0.0,0.0,58,0.00,CLR,CLR,0.00,WeatherDisplay:10.37,2013-02-17 02:45:00,
2013-02-17 02:50:00,42.4,28.7,30.09,SE,140,3.0,5.0,58,0.00,CLR,CLR,0.00,WeatherDisplay:10.37,2013-02-17 02:50:00,
2013-02-17 03:00:00,42.4,28.7,30.09,SSE,154,1.0,4.0,58,0.00,CLR,CLR,0.00,WeatherDisplay:10.37,2013-02-17 03:00:00,
2013-02-17 03:10:00,42.3,28.5,30.09,SSE,149,0.0,0.0,58,0.00,CLR,CLR,0.00,WeatherDisplay:10.37,2013-02-17 03:10:00,
2013-02-17 03:20:00,42.3,28.5,30.09,SSE,152,0.0,0.0,58,0.00,CLR,CLR,0.00,WeatherDisplay:10.37,2013-02-17 03:20:00,
2013-02-17 03:25:00,42.3,28.5,30.09,SSE,152,0.0,0.0,58,0.00,CLR,CLR,0.00,WeatherDisplay:10.37,2013-02-17 03:25:00,
2013-02-17 03:30:00,42.1,28.4,30.09,SSE,152,0.0,0.0,58,0.00,CLR,CLR,0.00,WeatherDisplay:10.37,2013-02-17 03:30:00,
2013-02-17 03:40:00,42.1,28.4,30.09,SSE,152,0.0,0.0,58,0.00,CLR,CLR,0.00,WeatherDisplay:10.37,2013-02-17 03:40:00,
2013-02-17 03:45:00,41.9,28.2,30.09,SSE,152,0.0,0.0,58,0.00,CLR,CLR,0.00,WeatherDisplay:10.37,2013-02-17 03:45:00,
2013-02-17 03:50:00,41.9,28.2,30.09,SSE,152,0.0,0.0,58,0.00,CLR,CLR,0.00,WeatherDisplay:10.37,2013-02-17 03:50:00,
2013-02-17 04:00:00,41.7,28.0,30.09,SE,136,0.0,0.0,58,0.00,CLR,CLR,0.00,WeatherDisplay:10.37,2013-02-17 04:00:00,
2013-02-17 04:10:00,41.5,27.8,30.09,ESE,120,0.0,0.0,58,0.00,CLR,CLR,0.00,WeatherDisplay:10.37,2013-02-17 04:10:00,
2013-02-17 04:15:00,41.5,27.8,30.09,ESE,119,0.0,0.0,58,0.00,CLR,CLR,0.00,WeatherDisplay:10.37,2013-02-17 04:15:00,
2013-02-17 04:20:00,41.5,27.8,30.09,ESE,119,0.0,0.0,58,0.00,CLR,CLR,0.00,WeatherDisplay:10.37,2013-02-17 04:20:00,
2013-02-17 04:30:00,41.5,27.8,30.09,ESE,119,0.0,0.0,58,0.00,CLR,CLR,0.00,WeatherDisplay:10.37,2013-02-17 04:30:00,
2013-02-17 04:35:00,41.4,28.1,30.09,ESE,119,0.0,0.0,59,0.00,CLR,CLR,0.00,WeatherDisplay:10.37,2013-02-17 04:35:00,
2013-02-17 04:40:00,41.4,28.1,30.09,ESE,120,0.0,0.0,59,0.00,CLR,CLR,0.00,WeatherDisplay:10.37,2013-02-17 04:40:00,
2013-02-17 04:50:00,41.5,28.3,30.09,ESE,102,2.0,4.0,59,0.00,CLR,CLR,0.00,WeatherDisplay:10.37,2013-02-17 04:50:00,
2013-02-17 04:55:00,41.5,28.3,30.09,East,98,0.0,0.0,59,0.00,CLR,CLR,0.00,WeatherDisplay:10.37,2013-02-17 04:55:00,
2013-02-17 05:00:00,41.5,28.3,30.09,East,92,0.0,0.0,59,0.00,CLR,CLR,0.00,WeatherDisplay:10.37,2013-02-17 05:00:00,
2013-02-17 05:05:00,41.5,28.3,30.09,East,89,0.0,0.0,59,0.00,CLR,CLR,0.00,WeatherDisplay:10.37,2013-02-17 05:05:00,
2013-02-17 05:10:00,41.5,28.3,30.09,East,90,0.0,0.0,59,0.00,CLR,CLR,0.00,WeatherDisplay:10.37,2013-02-17 05:10:00,
2013-02-17 05:15:00,41.5,28.3,30.09,East,93,1.0,6.0,59,0.00,CLR,CLR,0.00,WeatherDisplay:10.37,2013-02-17 05:15:00,
2013-02-17 05:20:00,41.5,28.7,30.09,SE,130,0.0,4.0,60,0.00,CLR,CLR,0.00,WeatherDisplay:10.37,2013-02-17 05:20:00,
2013-02-17 05:25:00,41.5,28.7,30.09,SSE,147,0.0,0.0,60,0.00,CLR,CLR,0.00,WeatherDisplay:10.37,2013-02-17 05:25:00,
2013-02-17 05:30:00,41.5,28.7,30.09,SE,143,2.0,4.0,60,0.00,CLR,CLR,0.00,WeatherDisplay:10.37,2013-02-17 05:30:00,
2013-02-17 05:40:00,41.7,28.8,30.09,ESE,120,2.0,5.0,60,0.00,CLR,CLR,0.00,WeatherDisplay:10.37,2013-02-17 05:40:00,
2013-02-17 05:45:00,41.7,28.8,30.09,ESE,119,2.0,6.0,60,0.00,CLR,CLR,0.00,WeatherDisplay:10.37,2013-02-17 05:45:00,
2013-02-17 05:50:00,41.7,28.8,30.09,ESE,122,0.0,0.0,60,0.00,CLR,CLR,0.00,WeatherDisplay:10.37,2013-02-17 05:50:00,
2013-02-17 06:05:00,41.7,29.3,30.09,East,100,3.0,5.0,61,0.00,CLR,CLR,0.00,WeatherDisplay:10.37,2013-02-17 06:05:00,
2013-02-17 06:10:00,41.7,29.3,30.09,East,98,0.0,4.0,61,0.00,CLR,CLR,0.00,WeatherDisplay:10.37,2013-02-17 06:10:00,
2013-02-17 06:15:00,41.7,28.8,30.09,East,97,1.0,4.0,60,0.00,CLR,CLR,0.00,WeatherDisplay:10.37,2013-02-17 06:15:00,
2013-02-17 06:20:00,41.7,28.8,30.09,East,100,0.0,0.0,60,0.00,CLR,CLR,0.00,WeatherDisplay:10.37,2013-02-17 06:20:00,
2013-02-17 06:30:00,41.5,28.7,30.09,ESE,104,0.0,0.0,60,0.00,CLR,CLR,0.00,WeatherDisplay:10.37,2013-02-17 06:30:00,
2013-02-17 06:40:00,41.5,28.7,30.09,East,96,2.0,4.0,60,0.00,CLR,CLR,0.00,WeatherDisplay:10.37,2013-02-17 06:40:00,
2013-02-17 06:45:00,41.5,28.7,30.09,ESE,104,3.0,5.0,60,0.00,CLR,CLR,0.00,WeatherDisplay:10.37,2013-02-17 06:45:00,
2013-02-17 06:50:00,41.5,28.7,30.09,ESE,107,2.0,5.0,60,0.00,CLR,CLR,0.00,WeatherDisplay:10.37,2013-02-17 06:50:00,
2013-02-17 07:00:00,41.5,28.7,30.09,ESE,103,1.0,6.0,60,0.00,CLR,CLR,0.00,WeatherDisplay:10.37,2013-02-17 07:00:00,
2013-02-17 07:05:00,41.4,28.1,30.09,ESE,105,5.0,6.0,59,0.00,CLR,CLR,0.00,WeatherDisplay:10.37,2013-02-17 07:05:00,
2013-02-17 07:10:00,41.4,28.1,30.09,ESE,107,2.0,6.0,59,0.00,CLR,CLR,0.00,WeatherDisplay:10.37,2013-02-17 07:10:00,
2013-02-17 07:15:00,41.2,27.5,30.09,ESE,107,3.0,5.0,58,0.00,CLR,CLR,0.00,WeatherDisplay:10.37,2013-02-17 07:15:00,
2013-02-17 07:20:00,41.0,27.3,30.09,ESE,109,0.0,4.0,58,0.00,CLR,CLR,0.00,WeatherDisplay:10.37,2013-02-17 07:20:00,
2013-02-17 07:25:00,40.6,26.6,30.09,East,93,1.0,3.0,57,0.00,CLR,CLR,0.00,WeatherDisplay:10.37,2013-02-17 07:25:00,
2013-02-17 07:30:00,40.5,26.4,30.09,East,84,1.0,4.0,57,0.00,CLR,CLR,0.00,WeatherDisplay:10.37,2013-02-17 07:30:00,
2013-02-17 07:40:00,39.9,25.9,30.09,SE,124,2.0,4.0,57,0.00,CLR,CLR,0.00,WeatherDisplay:10.37,2013-02-17 07:40:00,
2013-02-17 07:50:00,39.4,25.0,30.09,ESE,122,0.0,4.0,56,0.00,CLR,CLR,0.00,WeatherDisplay:10.37,2013-02-17 07:50:00,
2013-02-17 07:55:00,39.1,24.7,30.09,SE,135,1.0,4.0,56,0.00,CLR,CLR,0.00,WeatherDisplay:10.37,2013-02-17 07:55:00,
2013-02-17 08:00:00,38.6,24.2,30.09,SE,143,0.0,2.0,56,0.00,CLR,CLR,0.00,WeatherDisplay:10.37,2013-02-17 08:00:00,
2013-02-17 08:05:00,38.3,24.0,30.09,ESE,121,2.0,4.0,56,0.00,CLR,CLR,0.00,WeatherDisplay:10.37,2013-02-17 08:05:00,
2013-02-17 08:10:00,38.3,24.0,30.09,ESE,108,3.0,6.0,56,0.00,CLR,CLR,0.00,WeatherDisplay:10.37,2013-02-17 08:10:00,
2013-02-17 08:15:00,38.1,23.8,30.09,ESE,117,1.0,4.0,56,0.00,CLR,CLR,0.00,WeatherDisplay:10.37,2013-02-17 08:15:00,
2013-02-17 08:20:00,37.9,23.6,30.09,SE,131,0.0,3.0,56,0.00,CLR,CLR,0.00,WeatherDisplay:10.37,2013-02-17 08:20:00,
2013-02-17 08:30:00,37.8,23.5,30.09,ESE,116,0.0,0.0,56,0.00,CLR,CLR,0.00,WeatherDisplay:10.37,2013-02-17 08:30:00,
2013-02-17 08:40:00,37.4,23.1,30.09,SE,129,1.0,6.0,56,0.00,CLR,CLR,0.00,WeatherDisplay:10.37,2013-02-17 08:40:00,
2013-02-17 08:45:00,37.4,23.1,30.09,SE,127,1.0,6.0,56,0.00,CLR,CLR,0.00,WeatherDisplay:10.37,2013-02-17 08:45:00,
2013-02-17 08:50:00,37.3,23.0,30.09,SE,126,0.0,5.0,56,0.00,CLR,CLR,0.00,WeatherDisplay:10.37,2013-02-17 08:50:00,
2013-02-17 08:55:00,37.4,23.1,30.09,SE,135,0.0,4.0,56,0.00,CLR,CLR,0.00,WeatherDisplay:10.37,2013-02-17 08:55:00,
2013-02-17 09:00:00,37.5,23.2,30.09,SE,129,2.0,5.0,56,0.00,CLR,CLR,0.00,WeatherDisplay:10.37,2013-02-17 09:00:00,
2013-02-17 09:05:00,37.6,23.3,30.09,SE,125,0.0,6.0,56,0.00,CLR,CLR,0.00,WeatherDisplay:10.37,2013-02-17 09:05:00,
2013-02-17 09:10:00,37.8,23.5,30.09,SE,134,1.0,6.0,56,0.00,CLR,CLR,0.00,WeatherDisplay:10.37,2013-02-17 09:10:00,
2013-02-17 09:15:00,37.9,23.6,30.09,SE,136,0.0,5.0,56,0.00,CLR,CLR,0.00,WeatherDisplay:10.37,2013-02-17 09:15:00,
2013-02-17 09:20:00,37.9,23.6,30.09,SE,143,0.0,6.0,56,0.00,CLR,CLR,0.00,WeatherDisplay:10.37,2013-02-17 09:20:00,
2013-02-17 09:25:00,37.9,23.6,30.09,SE,145,0.0,0.0,56,0.00,CLR,CLR,0.00,WeatherDisplay:10.37,2013-02-17 09:25:00,
2013-02-17 09:30:00,37.9,23.6,30.09,SE,146,0.0,0.0,56,0.00,CLR,CLR,0.00,WeatherDisplay:10.37,2013-02-17 09:30:00,
2013-02-17 09:40:00,38.1,24.2,30.09,SE,129,1.0,5.0,57,0.00,CLR,CLR,0.00,WeatherDisplay:10.37,2013-02-17 09:40:00,
2013-02-17 09:45:00,38.3,24.4,30.09,ESE,122,1.0,5.0,57,0.00,CLR,CLR,0.00,WeatherDisplay:10.37,2013-02-17 09:45:00,
2013-02-17 09:50:00,38.7,24.7,30.09,SE,144,0.0,0.0,57,0.00,CLR,CLR,0.00,WeatherDisplay:10.37,2013-02-17 09:50:00,
2013-02-17 09:55:00,38.8,24.9,30.09,SE,145,0.0,0.0,57,0.00,CLR,CLR,0.00,WeatherDisplay:10.37,2013-02-17 09:55:00,
2013-02-17 10:00:00,39.2,25.2,30.09,SE,139,0.0,0.0,57,0.00,CLR,CLR,0.00,WeatherDisplay:10.37,2013-02-17 10:00:00,
2013-02-17 10:05:00,39.6,25.6,30.09,SE,131,0.0,5.0,57,0.00,CLR,CLR,0.00,WeatherDisplay:10.37,2013-02-17 10:05:00,
2013-02-17 10:10:00,39.8,25.8,30.09,SE,135,0.0,5.0,57,0.00,CLR,CLR,0.00,WeatherDisplay:10.37,2013-02-17 10:10:00,
2013-02-17 10:20:00,40.5,26.8,30.09,ESE,119,0.0,0.0,58,0.00,CLR,CLR,0.00,WeatherDisplay:10.37,2013-02-17 10:20:00,
2013-02-17 10:25:00,40.8,27.2,30.09,SSE,147,0.0,0.0,58,0.00,CLR,CLR,0.00,WeatherDisplay:10.37,2013-02-17 10:25:00,
2013-02-17 10:30:00,41.2,27.5,30.09,SE,141,3.0,4.0,58,0.00,CLR,CLR,0.00,WeatherDisplay:10.37,2013-02-17 10:30:00,
2013-02-17 10:35:00,41.7,28.0,30.09,SSE,149,0.0,3.0,58,0.00,CLR,CLR,0.00,WeatherDisplay:10.37,2013-02-17 10:35:00,
2013-02-17 10:40:00,42.1,28.4,30.09,South,179,1.0,4.0,58,0.00,CLR,CLR,0.00,WeatherDisplay:10.37,2013-02-17 10:40:00,
2013-02-17 10:50:00,42.8,28.2,30.09,South,176,0.0,6.0,56,0.00,CLR,CLR,0.00,WeatherDisplay:10.37,2013-02-17 10:50:00,
2013-02-17 10:55:00,43.0,27.9,30.09,SE,138,0.0,4.0,55,0.00,CLR,CLR,0.00,WeatherDisplay:10.37,2013-02-17 10:55:00,
2013-02-17 11:00:00,43.3,28.2,30.09,ESE,116,0.0,0.0,55,0.00,CLR,CLR,0.00,WeatherDisplay:10.37,2013-02-17 11:00:00,
2013-02-17 11:10:00,43.9,27.8,30.09,South,191,0.0,4.0,53,0.00,CLR,CLR,0.00,WeatherDisplay:10.37,2013-02-17 11:10:00,
2013-02-17 11:15:00,44.1,27.5,30.09,SE,142,1.0,5.0,52,0.00,CLR,CLR,0.00,WeatherDisplay:10.37,2013-02-17 11:15:00,
2013-02-17 11:20:00,44.2,27.2,30.09,SSE,148,2.0,5.0,51,0.00,CLR,CLR,0.00,WeatherDisplay:10.37,2013-02-17 11:20:00,
2013-02-17 11:30:00,44.2,26.3,30.09,SSW,196,0.0,6.0,49,0.00,CLR,CLR,0.00,WeatherDisplay:10.37,2013-02-17 11:30:00,
2013-02-17 11:40:00,44.2,24.7,30.09,South,191,3.0,6.0,46,0.00,CLR,CLR,0.00,WeatherDisplay:10.37,2013-02-17 11:40:00,
2013-02-17 11:45:00,44.4,24.4,30.09,South,188,1.0,4.0,45,0.00,CLR,CLR,0.00,WeatherDisplay:10.37,2013-02-17 11:45:00,
2013-02-17 11:55:00,45.1,22.8,30.09,SSW,194,5.0,8.0,41,0.00,CLR,CLR,0.00,WeatherDisplay:10.37,2013-02-17 11:55:00,
2013-02-17 12:00:00,46.0,23.0,30.09,South,181,2.0,6.0,40,0.00,CLR,CLR,0.00,WeatherDisplay:10.37,2013-02-17 12:00:00,
2013-02-17 12:10:00,46.9,22.6,30.09,South,187,3.0,8.0,38,0.00,CLR,CLR,0.00,WeatherDisplay:10.37,2013-02-17 12:10:00,
2013-02-17 12:20:00,47.7,22.0,30.09,SSW,192,5.0,8.0,36,0.00,CLR,CLR,0.00,WeatherDisplay:10.37,2013-02-17 12:20:00,
2013-02-17 12:30:00,48.0,18.0,30.09,SSW,193,5.0,7.0,30,0.00,CLR,CLR,0.00,WeatherDisplay:10.37,2013-02-17 12:30:00,
2013-02-17 12:40:00,48.2,16.6,30.09,South,186,7.0,9.0,28,0.00,CLR,CLR,0.00,WeatherDisplay:10.37,2013-02-17 12:40:00,
2013-02-17 12:50:00,48.2,15.7,30.09,South,187,5.0,9.0,27,0.00,CLR,CLR,0.00,WeatherDisplay:10.37,2013-02-17 12:50:00,
2013-02-17 13:00:00,49.1,17.4,30.09,South,188,6.0,9.0,28,0.00,CLR,CLR,0.00,WeatherDisplay:10.37,2013-02-17 13:00:00,
2013-02-17 13:05:00,49.5,16.8,30.09,South,189,6.0,8.0,27,0.00,CLR,CLR,0.00,WeatherDisplay:10.37,2013-02-17 13:05:00,
2013-02-17 13:10:00,49.5,16.8,30.09,SSW,193,6.0,8.0,27,0.00,CLR,CLR,0.00,WeatherDisplay:10.37,2013-02-17 13:10:00,
2013-02-17 13:20:00,49.5,16.8,30.09,SSW,194,7.0,11.0,27,0.00,CLR,CLR,0.00,WeatherDisplay:10.37,2013-02-17 13:20:00,
2013-02-17 13:25:00,49.3,15.8,30.09,SSW,193,5.0,8.0,26,0.00,CLR,CLR,0.00,WeatherDisplay:10.37,2013-02-17 13:25:00,
2013-02-17 13:30:00,49.3,15.8,30.09,South,191,6.0,8.0,26,0.00,CLR,CLR,0.00,WeatherDisplay:10.37,2013-02-17 13:30:00,
2013-02-17 13:40:00,49.3,16.7,30.09,South,186,5.0,9.0,27,0.00,CLR,CLR,0.00,WeatherDisplay:10.37,2013-02-17 13:40:00,
2013-02-17 13:45:00,49.3,16.7,30.09,SSW,192,2.0,8.0,27,0.00,CLR,CLR,0.00,WeatherDisplay:10.37,2013-02-17 13:45:00,
2013-02-17 13:50:00,49.5,16.8,30.09,South,190,5.0,8.0,27,0.00,CLR,CLR,0.00,WeatherDisplay:10.37,2013-02-17 13:50:00,
2013-02-17 13:55:00,49.2,15.7,30.09,South,190,3.0,6.0,26,0.00,CLR,CLR,0.00,WeatherDisplay:10.37,2013-02-17 13:55:00,
2013-02-17 14:00:00,48.8,15.3,30.09,South,178,1.0,4.0,26,0.00,CLR,CLR,0.00,WeatherDisplay:10.37,2013-02-17 14:00:00,
2013-02-17 14:05:00,48.9,16.3,30.09,SSE,163,5.0,6.0,27,0.00,CLR,CLR,0.00,WeatherDisplay:10.37,2013-02-17 14:05:00,
2013-02-17 14:10:00,48.9,16.4,30.09,SSE,165,3.0,6.0,27,0.00,CLR,CLR,0.00,WeatherDisplay:10.37,2013-02-17 14:10:00,
2013-02-17 14:20:00,48.9,16.4,30.08,South,172,3.0,8.0,27,0.00,CLR,CLR,0.00,WeatherDisplay:10.37,2013-02-17 14:20:00,
2013-02-17 14:30:00,48.9,16.4,30.06,SSE,168,1.0,6.0,27,0.00,CLR,CLR,0.00,WeatherDisplay:10.37,2013-02-17 14:30:00,
2013-02-17 14:40:00,48.7,16.2,30.06,South,173,5.0,6.0,27,0.00,CLR,CLR,0.00,WeatherDisplay:10.37,2013-02-17 14:40:00,
2013-02-17 14:50:00,48.2,15.7,30.06,SSE,165,3.0,7.0,27,0.00,CLR,CLR,0.00,WeatherDisplay:10.37,2013-02-17 14:50:00,
2013-02-17 14:55:00,48.0,15.6,30.06,South,182,3.0,7.0,27,0.00,CLR,CLR,0.00,WeatherDisplay:10.37,2013-02-17 14:55:00,
2013-02-17 15:00:00,47.7,15.3,30.06,SSW,198,3.0,6.0,27,0.00,CLR,CLR,0.00,WeatherDisplay:10.37,2013-02-17 15:00:00,
2013-02-17 15:10:00,46.8,14.6,30.06,SSW,199,3.0,6.0,27,0.00,CLR,CLR,0.00,WeatherDisplay:10.37,2013-02-17 15:10:00,
2013-02-17 15:15:00,46.6,14.3,30.06,SSW,194,3.0,6.0,27,0.00,CLR,CLR,0.00,WeatherDisplay:10.37,2013-02-17 15:15:00,
2013-02-17 15:20:00,46.2,14.9,30.06,South,188,5.0,6.0,28,0.00,CLR,CLR,0.00,WeatherDisplay:10.37,2013-02-17 15:20:00,
2013-02-17 15:25:00,46.0,14.7,30.06,South,184,5.0,6.0,28,0.00,CLR,CLR,0.00,WeatherDisplay:10.37,2013-02-17 15:25:00,
2013-02-17 15:30:00,45.7,14.4,30.06,South,182,0.0,7.0,28,0.00,CLR,CLR,0.00,WeatherDisplay:10.37,2013-02-17 15:30:00,
2013-02-17 15:40:00,45.3,14.1,30.06,South,189,2.0,6.0,28,0.00,CLR,CLR,0.00,WeatherDisplay:10.37,2013-02-17 15:40:00,
2013-02-17 15:45:00,45.1,13.9,30.06,South,179,1.0,6.0,28,0.00,CLR,CLR,0.00,WeatherDisplay:10.37,2013-02-17 15:45:00,
2013-02-17 15:50:00,44.8,13.6,30.06,SSE,152,0.0,4.0,28,0.00,CLR,CLR,0.00,WeatherDisplay:10.37,2013-02-17 15:50:00,
2013-02-17 16:00:00,44.4,14.1,30.06,SSE,159,5.0,8.0,29,0.00,CLR,CLR,0.00,WeatherDisplay:10.37,2013-02-17 16:00:00,
2013-02-17 16:05:00,44.2,13.9,30.06,South,170,3.0,6.0,29,0.00,CLR,CLR,0.00,WeatherDisplay:10.37,2013-02-17 16:05:00,
2013-02-17 16:10:00,44.1,13.8,30.06,South,184,5.0,8.0,29,0.00,CLR,CLR,0.00,WeatherDisplay:10.37,2013-02-17 16:10:00,
2013-02-17 16:15:00,44.1,13.8,30.06,South,182,3.0,8.0,29,0.00,CLR,CLR,0.00,WeatherDisplay:10.37,2013-02-17 16:15:00,
2013-02-17 16:20:00,43.9,13.6,30.06,South,178,3.0,6.0,29,0.00,CLR,CLR,0.00,WeatherDisplay:10.37,2013-02-17 16:20:00,
2013-02-17 16:25:00,43.7,13.5,30.06,South,187,1.0,6.0,29,0.00,CLR,CLR,0.00,WeatherDisplay:10.37,2013-02-17 16:25:00,
2013-02-17 16:30:00,43.5,13.3,30.06,SSW,194,3.0,5.0,29,0.00,CLR,CLR,0.00,WeatherDisplay:10.37,2013-02-17 16:30:00,
2013-02-17 16:40:00,43.2,13.0,30.06,South,185,0.0,4.0,29,0.00,CLR,CLR,0.00,WeatherDisplay:10.37,2013-02-17 16:40:00,
2013-02-17 16:45:00,42.9,13.5,30.06,SSE,161,0.0,0.0,30,0.00,CLR,CLR,0.00,WeatherDisplay:10.37,2013-02-17 16:45:00,
2013-02-17 16:50:00,42.4,13.1,30.06,SE,139,0.0,4.0,30,0.00,CLR,CLR,0.00,WeatherDisplay:10.37,2013-02-17 16:50:00,
2013-02-17 16:55:00,41.9,12.7,30.06,SE,136,0.0,2.0,30,0.00,CLR,CLR,0.00,WeatherDisplay:10.37,2013-02-17 16:55:00,
2013-02-17 17:00:00,41.1,11.9,30.06,SE,141,0.0,0.0,30,0.00,CLR,CLR,0.00,WeatherDisplay:10.37,2013-02-17 17:00:00,
2013-02-17 17:05:00,40.3,11.3,30.06,SE,131,0.0,0.0,30,0.00,CLR,CLR,0.00,WeatherDisplay:10.37,2013-02-17 17:05:00,
2013-02-17 17:10:00,39.7,11.5,30.06,ESE,111,3.0,4.0,31,0.00,CLR,CLR,0.00,WeatherDisplay:10.37,2013-02-17 17:10:00,
2013-02-17 17:15:00,39.0,10.9,30.06,ESE,109,2.0,4.0,31,0.00,CLR,CLR,0.00,WeatherDisplay:10.37,2013-02-17 17:15:00,
2013-02-17 17:20:00,38.5,10.4,30.06,ESE,108,3.0,4.0,31,0.00,CLR,CLR,0.00,WeatherDisplay:10.37,2013-02-17 17:20:00,
2013-02-17 17:25:00,37.7,10.4,30.06,ESE,108,3.0,5.0,32,0.00,CLR,CLR,0.00,WeatherDisplay:10.37,2013-02-17 17:25:00,
2013-02-17 17:30:00,37.0,9.9,30.06,ESE,111,3.0,6.0,32,0.00,CLR,CLR,0.00,WeatherDisplay:10.37,2013-02-17 17:30:00,
2013-02-17 17:40:00,36.2,10.5,30.09,ESE,104,3.0,4.0,34,0.00,CLR,CLR,0.00,WeatherDisplay:10.37,2013-02-17 17:40:00,
2013-02-17 17:50:00,35.3,10.3,30.09,ESE,108,3.0,5.0,35,0.00,CLR,CLR,0.00,WeatherDisplay:10.37,2013-02-17 17:50:00,
2013-02-17 18:00:00,34.7,10.4,30.09,ESE,104,3.0,4.0,36,0.00,CLR,CLR,0.00,WeatherDisplay:10.37,2013-02-17 18:00:00,
2013-02-17 18:10:00,34.0,10.4,30.09,ESE,111,3.0,5.0,37,0.00,CLR,CLR,0.00,WeatherDisplay:10.37,2013-02-17 18:10:00,
2013-02-17 18:20:00,33.6,11.3,30.09,ESE,115,3.0,4.0,39,0.00,CLR,CLR,0.00,WeatherDisplay:10.37,2013-02-17 18:20:00,
2013-02-17 18:30:00,33.1,11.3,30.09,ESE,105,5.0,6.0,40,0.00,CLR,CLR,0.00,WeatherDisplay:10.37,2013-02-17 18:30:00,
2013-02-17 18:40:00,33.3,12.1,30.09,East,98,5.0,6.0,41,0.00,CLR,CLR,0.00,WeatherDisplay:10.37,2013-02-17 18:40:00,
2013-02-17 18:50:00,33.6,12.9,30.09,East,98,3.0,4.0,42,0.00,CLR,CLR,0.00,WeatherDisplay:10.37,2013-02-17 18:50:00,
2013-02-17 18:55:00,33.4,12.8,30.09,ESE,103,3.0,5.0,42,0.00,CLR,CLR,0.00,WeatherDisplay:10.37,2013-02-17 18:55:00,
2013-02-17 19:00:00,33.3,12.6,30.09,ESE,105,3.0,6.0,42,0.00,CLR,CLR,0.00,WeatherDisplay:10.37,2013-02-17 19:00:00,
2013-02-17 19:05:00,33.1,12.4,30.09,ESE,105,5.0,6.0,42,0.00,CLR,CLR,0.00,WeatherDisplay:10.37,2013-02-17 19:05:00,
2013-02-17 19:10:00,32.9,12.3,30.09,ESE,106,5.0,6.0,42,0.00,CLR,CLR,0.00,WeatherDisplay:10.37,2013-02-17 19:10:00,
2013-02-17 19:15:00,32.7,12.7,30.09,ESE,108,3.0,6.0,43,0.00,CLR,CLR,0.00,WeatherDisplay:10.37,2013-02-17 19:15:00,
2013-02-17 19:25:00,32.4,12.3,30.09,ESE,105,3.0,6.0,43,0.00,CLR,CLR,0.00,WeatherDisplay:10.37,2013-02-17 19:25:00,
2013-02-17 19:30:00,32.4,12.3,30.09,ESE,106,5.0,6.0,43,0.00,CLR,CLR,0.00,WeatherDisplay:10.37,2013-02-17 19:30:00,
2013-02-17 19:35:00,32.2,12.2,30.09,ESE,103,5.0,5.0,43,0.00,CLR,CLR,0.00,WeatherDisplay:10.37,2013-02-17 19:35:00,
2013-02-17 19:40:00,32.0,12.0,30.09,ESE,103,3.0,5.0,43,0.00,CLR,CLR,0.00,WeatherDisplay:10.37,2013-02-17 19:40:00,
2013-02-17 19:45:00,31.7,11.7,30.09,ESE,107,3.0,4.0,43,0.00,CLR,CLR,0.00,WeatherDisplay:10.37,2013-02-17 19:45:00,
2013-02-17 19:50:00,31.5,12.0,30.09,ESE,108,3.0,4.0,44,0.00,CLR,CLR,0.00,WeatherDisplay:10.37,2013-02-17 19:50:00,
2013-02-17 19:55:00,31.1,11.7,30.09,ESE,106,3.0,4.0,44,0.00,CLR,CLR,0.00,WeatherDisplay:10.37,2013-02-17 19:55:00,
2013-02-17 20:05:00,30.7,11.4,30.09,ESE,106,2.0,4.0,44,0.00,CLR,CLR,0.00,WeatherDisplay:10.37,2013-02-17 20:05:00,
2013-02-17 20:10:00,30.6,11.2,30.09,ESE,106,0.0,3.0,44,0.00,CLR,CLR,0.00,WeatherDisplay:10.37,2013-02-17 20:10:00,
2013-02-17 20:20:00,30.4,11.0,30.09,ESE,107,0.0,0.0,44,0.00,CLR,CLR,0.00,WeatherDisplay:10.37,2013-02-17 20:20:00,
2013-02-17 20:25:00,30.2,11.4,30.09,ESE,104,0.0,0.0,45,0.00,CLR,CLR,0.00,WeatherDisplay:10.37,2013-02-17 20:25:00,
2013-02-17 20:31:00,30.2,11.4,30.09,East,101,0.0,0.0,45,0.00,CLR,CLR,0.00,WeatherDisplay:10.37,2013-02-17 20:31:00,
2013-02-17 20:40:00,30.2,11.9,30.09,ESE,112,3.0,4.0,46,0.00,CLR,CLR,0.00,WeatherDisplay:10.37,2013-02-17 20:40:00,
2013-02-17 20:50:00,30.2,11.9,30.09,ESE,110,0.0,0.0,46,0.00,CLR,CLR,0.00,WeatherDisplay:10.37,2013-02-17 20:50:00,
2013-02-17 20:55:00,30.2,11.9,30.09,ESE,108,1.0,4.0,46,0.00,CLR,CLR,0.00,WeatherDisplay:10.37,2013-02-17 20:55:00,
2013-02-17 21:00:00,30.2,11.9,30.09,ESE,108,0.0,0.0,46,0.00,CLR,CLR,0.00,WeatherDisplay:10.37,2013-02-17 21:00:00,
2013-02-17 21:05:00,30.0,11.7,30.09,ESE,107,3.0,4.0,46,0.00,CLR,CLR,0.00,WeatherDisplay:10.37,2013-02-17 21:05:00,
2013-02-17 21:10:00,30.0,12.2,30.09,ESE,105,2.0,4.0,47,0.00,CLR,CLR,0.00,WeatherDisplay:10.37,2013-02-17 21:10:00,
2013-02-17 21:20:00,29.8,12.0,30.09,ESE,105,3.0,4.0,47,0.00,CLR,CLR,0.00,WeatherDisplay:10.37,2013-02-17 21:20:00,
2013-02-17 21:30:00,29.7,11.9,30.09,ESE,104,1.0,5.0,47,0.00,CLR,CLR,0.00,WeatherDisplay:10.37,2013-02-17 21:30:00,
2013-02-17 21:40:00,29.5,12.2,30.09,ESE,105,0.0,0.0,48,0.00,CLR,CLR,0.00,WeatherDisplay:10.37,2013-02-17 21:40:00,
2013-02-17 21:45:00,29.5,12.2,30.09,ESE,103,0.0,0.0,48,0.00,CLR,CLR,0.00,WeatherDisplay:10.37,2013-02-17 21:45:00,
2013-02-17 21:50:00,29.5,12.2,30.09,ESE,105,0.0,4.0,48,0.00,CLR,CLR,0.00,WeatherDisplay:10.37,2013-02-17 21:50:00,
2013-02-17 21:55:00,29.5,12.6,30.09,ESE,114,2.0,4.0,49,0.00,CLR,CLR,0.00,WeatherDisplay:10.37,2013-02-17 21:55:00,
2013-02-17 22:05:00,29.8,13.0,30.09,ESE,104,0.0,3.0,49,0.00,CLR,CLR,0.00,WeatherDisplay:10.37,2013-02-17 22:05:00,
2013-02-17 22:10:00,29.8,13.0,30.09,ESE,103,5.0,6.0,49,0.00,CLR,CLR,0.00,WeatherDisplay:10.37,2013-02-17 22:10:00,
2013-02-17 22:20:00,30.0,13.6,30.09,SE,139,2.0,4.0,50,0.00,CLR,CLR,0.00,WeatherDisplay:10.37,2013-02-17 22:20:00,
2013-02-17 22:25:00,30.0,13.6,30.09,ESE,107,0.0,0.0,50,0.00,CLR,CLR,0.00,WeatherDisplay:10.37,2013-02-17 22:25:00,
2013-02-17 22:35:00,29.8,13.4,30.09,ESE,107,0.0,5.0,50,0.00,CLR,CLR,0.00,WeatherDisplay:10.37,2013-02-17 22:35:00,
2013-02-17 22:40:00,29.8,13.4,30.09,ESE,108,2.0,4.0,50,0.00,CLR,CLR,0.00,WeatherDisplay:10.37,2013-02-17 22:40:00,
2013-02-17 22:50:00,29.5,13.1,30.09,ESE,110,2.0,4.0,50,0.00,CLR,CLR,0.00,WeatherDisplay:10.37,2013-02-17 22:50:00,
2013-02-17 23:00:00,29.5,13.6,30.09,ESE,116,2.0,3.0,51,0.00,CLR,CLR,0.00,WeatherDisplay:10.37,2013-02-17 23:00:00,
2013-02-17 23:05:00,29.3,13.4,30.06,ESE,109,0.0,2.0,51,0.00,CLR,CLR,0.00,WeatherDisplay:10.37,2013-02-17 23:05:00,
2013-02-17 23:15:00,29.1,13.2,30.06,ESE,110,2.0,4.0,51,0.00,CLR,CLR,0.00,WeatherDisplay:10.37,2013-02-17 23:15:00,
2013-02-17 23:20:00,29.0,13.1,30.09,ESE,110,3.0,5.0,51,0.00,CLR,CLR,0.00,WeatherDisplay:10.37,2013-02-17 23:20:00,
2013-02-17 23:30:00,28.9,13.1,30.09,ESE,106,3.0,4.0,51,0.00,CLR,CLR,0.00,WeatherDisplay:10.37,2013-02-17 23:30:00,
2013-02-17 23:35:00,28.8,12.9,30.09,ESE,112,3.0,6.0,51,0.00,CLR,CLR,0.00,WeatherDisplay:10.37,2013-02-17 23:35:00,
2013-02-17 23:45:00,28.6,12.7,30.09,ESE,107,0.0,4.0,51,0.00,CLR,CLR,0.00,WeatherDisplay:10.37,2013-02-17 23:45:00,
2013-02-17 23:50:00,28.6,12.7,30.09,ESE,111,0.0,0.0,51,0.00,CLR,CLR,0.00,WeatherDisplay:10.37,2013-02-17 23:50:00,
2013-02-17 23:55:00,28.6,12.7,30.09,ESE,115,0.0,2.0,51,0.00,CLR,CLR,0.00,WeatherDisplay:10.37,2013-02-17 23:55:00,